Weather History for KN60 - March, 2013

Change the Weather History Date:

Saturday, March 30, 2013

  Actual Average Record
Temperature  
Mean Temperature 32 °F -  
Max Temperature 39 °F 41 °F 72 °F (2012)
Min Temperature 25 °F 22 °F 19 °F (2004)
Degree Days  
Heating Degree Days 33    
Month to date heating degree days 1461  
Moisture  
Dew Point 28 °F    
Average Humidity 88    
Maximum Humidity 100    
Minimum Humidity 76    
Precipitation  
Precipitation 0.01 in - - ()
Month to date precipitation 0.97  
Year to date precipitation 2.06  
Sea Level Pressure  
Sea Level Pressure 30.07 in    
Wind  
Wind Speed 11 mph (NW)    
Max Wind Speed 22 mph    
Max Gust Speed 28 mph    
Averages and records for this station are not official NWS values.
T = Trace of Precipitation, MM = Missing Value Source: NWS Daily Summary

Daily Weather History Graph

Daily Weather History Graph

Search for Another Location

Airport or City:

Trip Planner

Search our weather history database for the weather conditions in past years. The results will help you decide how hot, cold, wet, or windy it might be!

Date:

Astronomy

Mar. 30, 2013 Rise Set
Actual Time 7:27 AM CDT 8:13 PM CDT
Civil Twilight 6:56 AM CDT 8:44 PM CDT
Nautical Twilight 6:19 AM CDT 9:21 PM CDT
Astronomical Twilight 5:40 AM CDT 10:00 PM CDT
Moon No Moon Rise 9:08 AM CDT (3/30)
Length of Visible Light 13h 47m
Length of Day
12h 45m
Waning Gibbous, 86% of the Moon is Illuminated
Mar 30
Waning Gibbous
Apr 2
Last Quarter
Apr 10
New
Apr 18
First Quarter
Apr 25
Full

Hourly Weather History & Observations

Time (CDT) Temp. Windchill Dew Point Humidity Pressure Visibility Wind Dir Wind Speed Gust Speed Precip Events Conditions
12:52 AM 33.1 °F 26.1 °F 30.9 °F 92% 30.05 in - WNW 8.1 mph - N/A   Unknown
1:52 AM 30.0 °F 22.4 °F 28.9 °F 96% 30.05 in - NW 8.1 mph - N/A   Unknown
2:52 AM 30.0 °F 22.4 °F 28.9 °F 96% 30.06 in - NW 8.1 mph - N/A   Unknown
3:52 AM 28.9 °F 23.9 °F 28.0 °F 96% 30.05 in - NNW 4.6 mph - N/A   Unknown
4:52 AM 28.0 °F 19.3 °F 26.1 °F 92% 30.06 in - NW 9.2 mph - N/A   Unknown
5:52 AM 26.1 °F 16.8 °F 25.0 °F 96% 30.06 in - NW 9.2 mph - N/A   Unknown
6:52 AM 26.1 °F 18.4 °F 24.1 °F 92% 30.07 in - WNW 6.9 mph - N/A   Unknown
7:52 AM 27.0 °F 18.0 °F 25.0 °F 92% 30.08 in - WNW 9.2 mph - N/A   Unknown
8:52 AM 28.0 °F 18.6 °F 25.0 °F 88% 30.09 in - WNW 10.4 mph - N/A   Unknown
9:52 AM 30.0 °F 19.5 °F 26.1 °F 85% 30.08 in - NW 13.8 mph - 0.01 in   Unknown
10:52 AM 32.0 °F 21.6 °F 27.0 °F 82% 30.09 in - NW 15.0 mph - N/A   Unknown
11:52 AM 34.0 °F 24.2 °F 28.9 °F 82% 30.09 in - NW 15.0 mph - N/A   Unknown
12:52 PM 35.1 °F 28.6 °F 30.0 °F 82% 30.09 in - NW 8.1 mph - N/A   Unknown
1:52 PM 37.0 °F 31.0 °F 30.0 °F 76% 30.07 in - WNW 8.1 mph - N/A   Unknown
2:52 PM 39.0 °F 31.8 °F 32.0 °F 76% 30.06 in - NW 11.5 mph - N/A   Unknown
3:52 PM 39.0 °F 29.9 °F 32.0 °F 76% 30.06 in - NW 17.3 mph - N/A   Unknown
4:52 PM 39.0 °F 29.0 °F 32.0 °F 76% 30.06 in - NW 20.7 mph - N/A   Unknown
5:52 PM 37.9 °F 29.2 °F 33.1 °F 83% 30.05 in - WNW 15.0 mph - N/A   Unknown
6:52 PM 37.9 °F 29.6 °F 33.1 °F 83% 30.04 in - WNW 13.8 mph - N/A   Unknown
7:52 PM 37.0 °F 27.4 °F 32.0 °F 82% 30.04 in - WNW 17.3 mph - N/A   Unknown
8:52 PM 35.1 °F 24.8 °F 28.9 °F 78% 30.05 in - WNW 17.3 mph - N/A   Unknown
9:52 PM 33.1 °F 21.5 °F 25.0 °F 72% 30.07 in - NW 19.6 mph 27.6 mph N/A   Unknown
10:52 PM 30.9 °F 18.1 °F 25.0 °F 79% 30.07 in - NW 21.9 mph 27.6 mph N/A   Unknown
11:52 PM 30.0 °F 16.9 °F 24.1 °F 79% 30.07 in - NW 21.9 mph - N/A   Unknown